K6NC Weather Reports


Display with metric or nautical units.
time (UTC)temp
F
wind
direction
speed
MPH
gust
MPH
rain 1hr
in
rain 24hr
in
rain mn
in
humidity
%
barometer
mb
20260903042520 66 227 6.0 10.0 0.00 0.00 0.00 64 1015.2
20260903042019 67 244 6.0 8.0 0.00 0.00 0.00 64 1015.2
20260903041019 66 229 5.0 8.0 0.00 0.00 0.00 64 1015.2
20260903040517 67 235 4.0 8.0 0.00 0.00 0.00 64 1015.1
20260903035516 67 227 4.0 8.0 0.00 0.00 0.00 63 1015.0
20260903035018 67 247 4.0 8.0 0.00 0.00 0.00 61 1014.8
20260903032518 67 254 6.0 9.0 0.00 0.00 0.00 60 1014.6
20260903032020 68 265 4.0 8.0 0.00 0.00 0.00 60 1014.5
20260903031019 68 261 4.0 7.0 0.00 0.00 0.00 58 1014.4
20260903030522 68 265 3.0 5.0 0.00 0.00 0.00 58 1014.5
20260903025522 69 257 2.0 7.0 0.00 0.00 0.00 57 1014.5
20260903025019 69 252 3.0 8.0 0.00 0.00 0.00 56 1014.5
20260903024020 70 259 5.0 9.0 0.00 0.00 0.00 56 1014.4
20260903022518 71 255 8.0 12.0 0.00 0.00 0.00 55 1014.5
20260903022019 72 248 7.0 11.0 0.00 0.00 0.00 56 1014.5
20260903021023 72 257 7.0 12.0 0.00 0.00 0.00 55 1014.5
20260903020520 73 250 8.0 12.0 0.00 0.00 0.00 55 1014.6
20260903015516 73 265 6.0 11.0 0.00 0.00 0.00 56 1014.6
20260903015015 74 284 7.0 11.0 0.00 0.00 0.00 55 1014.6
20260903014022 74 263 8.0 15.0 0.00 0.00 0.00 55 1014.6
20260903013520 74 248 9.0 15.0 0.00 0.00 0.00 55 1014.7
20260903012519 75 258 6.0 13.0 0.00 0.00 0.00 54 1014.7
20260903012020 75 279 7.0 13.0 0.00 0.00 0.00 54 1014.7
20260903011015 76 241 8.0 12.0 0.00 0.00 0.00 53 1014.7
20260903010518 76 284 8.0 11.0 0.00 0.00 0.00 52 1014.8
20260903005019 76 263 6.0 11.0 0.00 0.00 0.00 53 1014.9
20260903004020 76 245 3.0 12.0 0.00 0.00 0.00 52 1014.8
20260903003518 76 247 7.0 12.0 0.00 0.00 0.00 52 1014.9
20260903002519 76 261 4.0 13.0 0.00 0.00 0.00 54 1015.0
20260903002024 76 288 4.0 13.0 0.00 0.00 0.00 51 1015.0
20260903001018 77 265 5.0 13.0 0.00 0.00 0.00 51 1015.0
20260903000516 77 281 4.0 13.0 0.00 0.00 0.00 51 1015.0
20260902235516 78 244 7.0 12.0 0.00 0.00 0.00 49 1015.2
20260902235015 78 253 8.0 13.0 0.00 0.00 0.00 49 1015.1
20260902234018 79 244 7.0 14.0 0.00 0.00 0.00 49 1015.2
20260902233520 79 296 5.0 14.0 0.00 0.00 0.00 50 1015.2
20260902232522 78 296 6.0 13.0 0.00 0.00 0.00 50 1015.3
20260902232021 78 301 6.0 14.0 0.00 0.00 0.00 50 1015.3
20260902231017 78 273 10.0 16.0 0.00 0.00 0.00 50 1015.3
20260902230519 78 245 10.0 14.0 0.00 0.00 0.00 48 1015.4
20260902230039 79 276 8.0 14.0 0.00 0.00 0.00 48 1015.4
20260902225523 79 245 9.0 14.0 0.00 0.00 0.00 47 1015.3
20260902225018 79 229 6.0 13.0 0.00 0.00 0.00 48 1015.5
20260902223520 80 257 7.0 14.0 0.00 0.00 0.00 46 1015.5
20260902222519 79 307 6.0 13.0 0.00 0.00 0.00 49 1015.4
20260902222016 79 306 4.0 14.0 0.00 0.00 0.00 48 1015.6
20260902215521 80 265 9.0 15.0 0.00 0.00 0.00 46 1015.8
20260902215020 79 267 4.0 13.0 0.00 0.00 0.00 48 1016.0
20260902214020 80 263 5.0 15.0 0.00 0.00 0.00 46 1016.0
20260902213523 81 238 10.0 15.0 0.00 0.00 0.00 44 1016.1
20260902212519 79 267 7.0 11.0 0.00 0.00 0.00 46 1016.1
20260902212018 78 261 6.0 11.0 0.00 0.00 0.00 50 1016.2
20260902211022 78 186 3.0 16.0 0.00 0.00 0.00 47 1016.2
20260902210521 79 233 10.0 16.0 0.00 0.00 0.00 45 1016.2
20260902205519 79 263 7.0 11.0 0.00 0.00 0.00 48 1016.2
20260902205020 79 94 2.0 11.0 0.00 0.00 0.00 49 1016.1
20260902204018 79 243 6.0 11.0 0.00 0.00 0.00 48 1016.3
20260902203516 78 210 5.0 9.0 0.00 0.00 0.00 52 1016.4
20260902202518 77 0 0.0 9.0 0.00 0.00 0.00 52 1016.7
20260902200522 78 292 5.0 12.0 0.00 0.00 0.00 51 1016.8
20260902195521 77 244 8.0 12.0 0.00 0.00 0.00 51 1017.1
20260902195016 76 0 0.0 12.0 0.00 0.00 0.00 52 1017.1
20260902194019 77 236 6.0 12.0 0.00 0.00 0.00 51 1017.1
20260902193520 76 209 7.0 12.0 0.00 0.00 0.00 53 1017.1
20260902192522 75 317 2.0 10.0 0.00 0.00 0.00 56 1017.2
20260902192017 76 267 7.0 10.0 0.00 0.00 0.00 53 1017.3
20260902191019 76 187 5.0 10.0 0.00 0.00 0.00 53 1017.3
20260902190519 75 273 4.0 11.0 0.00 0.00 0.00 53 1017.4
20260902185517 76 247 5.0 11.0 0.00 0.00 0.00 53 1017.3
20260902185016 76 287 5.0 10.0 0.00 0.00 0.00 54 1017.3
20260902184020 75 69 2.0 10.0 0.00 0.00 0.00 54 1017.4
20260902182518 74 332 1.0 7.0 0.00 0.00 0.00 56 1017.3
20260902182020 73 237 2.0 8.0 0.00 0.00 0.00 59 1017.3
20260902181018 73 0 4.0 9.0 0.00 0.00 0.00 57 1017.3
20260902180519 73 296 2.0 7.0 0.00 0.00 0.00 58 1017.3
20260902175519 74 293 0.0 10.0 0.00 0.00 0.00 57 1017.4
20260902175017 74 262 5.0 10.0 0.00 0.00 0.00 58 1017.4
20260902174021 73 298 5.0 10.0 0.00 0.00 0.00 59 1017.4
20260902173519 74 236 4.0 9.0 0.00 0.00 0.00 58 1017.4
20260902172523 73 269 6.0 10.0 0.00 0.00 0.00 60 1017.3
20260902172018 72 270 4.0 10.0 0.00 0.00 0.00 61 1017.3
20260902171017 71 257 4.0 9.0 0.00 0.00 0.00 62 1017.3
20260902170519 71 309 2.0 10.0 0.00 0.00 0.00 63 1017.2
20260902165524 70 241 1.0 6.0 0.00 0.00 0.00 64 1017.1
20260902165020 69 0 0.0 6.0 0.00 0.00 0.00 65 1017.1
20260902164016 68 257 2.0 8.0 0.00 0.00 0.00 67 1017.0
20260902163518 67 136 1.0 7.0 0.00 0.00 0.00 68 1017.0
20260902162019 65 92 0.0 6.0 0.00 0.00 0.00 74 1017.1
20260902161020 63 107 2.0 7.0 0.00 0.00 0.00 78 1017.2
20260902160520 62 84 3.0 8.0 0.00 0.00 0.00 78 1017.2
20260902154019 60 74 1.0 4.0 0.00 0.00 0.00 82 1017.1
20260902153518 59 86 2.0 4.0 0.00 0.00 0.00 82 1017.1
20260902152519 59 0 0.0 0.0 0.00 0.00 0.00 83 1017.2
20260902152017 58 0 0.0 0.0 0.00 0.00 0.00 83 1017.1
20260902151017 58 0 0.0 3.0 0.00 0.00 0.00 83 1016.9
20260902150518 57 0 0.0 4.0 0.00 0.00 0.00 83 1016.9
20260902145518 57 79 2.0 3.0 0.00 0.00 0.00 84 1016.7
20260902145023 57 0 1.0 4.0 0.00 0.00 0.00 84 1016.8
20260902144018 56 115 0.0 4.0 0.00 0.00 0.00 85 1016.7
20260902143518 56 0 1.0 4.0 0.00 0.00 0.00 85 1016.6
20260902142517 55 89 2.0 4.0 0.00 0.00 0.00 85 1016.5
20260902142018 55 79 2.0 4.0 0.00 0.00 0.00 86 1016.7
20260902141017 55 0 0.0 3.0 0.00 0.00 0.00 85 1016.6
20260902135519 55 79 1.0 2.0 0.00 0.00 0.00 85 1016.6
20260902135018 54 0 0.0 0.0 0.00 0.00 0.00 85 1016.6
20260902134019 54 0 0.0 2.0 0.00 0.00 0.00 85 1016.5
20260902133521 54 0 0.0 2.0 0.00 0.00 0.00 85 1016.4
20260902132517 54 0 0.0 3.0 0.00 0.00 0.00 85 1016.2
20260902132018 54 0 0.0 3.0 0.00 0.00 0.00 85 1016.1
20260902131020 54 76 2.0 3.0 0.00 0.00 0.00 85 1016.1
20260902130521 54 80 2.0 4.0 0.00 0.00 0.00 85 1016.1
20260902125517 54 75 3.0 5.0 0.00 0.00 0.00 85 1016.0
20260902125017 54 73 4.0 5.0 0.00 0.00 0.00 84 1016.1
20260902124534 54 74 2.0 4.0 0.00 0.00 0.00 84 1016.1
20260902124015 54 26 0.0 4.0 0.00 0.00 0.00 84 1016.2
20260902122518 54 80 3.0 5.0 0.00 0.00 0.00 85 1016.2
20260902122018 54 78 3.0 7.0 0.00 0.00 0.00 84 1016.1
20260902121019 54 84 4.0 7.0 0.00 0.00 0.00 85 1016.1
20260902120520 54 71 3.0 4.0 0.00 0.00 0.00 85 1016.2
20260902115518 54 74 2.0 4.0 0.00 0.00 0.00 84 1016.2
20260902115018 54 80 2.0 4.0 0.00 0.00 0.00 85 1016.1
20260902114016 54 74 1.0 3.0 0.00 0.00 0.00 85 1016.2
20260902113520 54 68 2.0 3.0 0.00 0.00 0.00 85 1016.2
20260902112520 54 108 1.0 3.0 0.00 0.00 0.00 84 1016.1
20260902112023 54 101 1.0 4.0 0.00 0.00 0.00 84 1015.9
20260902111018 54 94 1.0 3.0 0.00 0.00 0.00 83 1016.0
20260902110517 54 0 0.0 3.0 0.00 0.00 0.00 84 1016.1
20260902105520 55 73 2.0 4.0 0.00 0.00 0.00 84 1016.3
20260902104020 55 78 1.0 3.0 0.00 0.00 0.00 84 1016.2
20260902103519 55 0 0.0 3.0 0.00 0.00 0.00 84 1016.2
20260902102516 55 110 0.0 2.0 0.00 0.00 0.00 84 1016.3
20260902102016 55 0 0.0 3.0 0.00 0.00 0.00 84 1016.3
20260902101536 55 86 1.0 4.0 0.00 0.00 0.00 83 1016.4
20260902101018 55 80 2.0 4.0 0.00 0.00 0.00 83 1016.5
20260902095520 55 78 3.0 4.0 0.00 0.00 0.00 82 1016.5
20260902095019 55 74 2.0 4.0 0.00 0.00 0.00 82 1016.5
20260902094019 55 0 0.0 1.0 0.00 0.00 0.00 81 1016.4
20260902093520 55 0 0.0 2.0 0.00 0.00 0.00 81 1016.4
20260902092518 55 182 0.0 2.0 0.00 0.00 0.00 81 1016.4
20260902092019 55 0 0.0 2.0 0.00 0.00 0.00 81 1016.4
20260902091536 55 101 0.0 1.0 0.00 0.00 0.00 80 1016.3
20260902091019 56 0 0.0 0.0 0.00 0.00 0.00 81 1016.4
20260902090518 56 0 0.0 0.0 0.00 0.00 0.00 81 1016.4
20260902085518 56 0 0.0 2.0 0.00 0.00 0.00 82 1016.3
20260902085019 56 101 0.0 3.0 0.00 0.00 0.00 82 1016.4
20260902084023 56 96 1.0 3.0 0.00 0.00 0.00 81 1016.4
20260902083520 56 101 0.0 3.0 0.00 0.00 0.00 81 1016.4
20260902082519 57 0 0.0 2.0 0.00 0.00 0.00 79 1016.3
20260902082018 57 0 0.0 2.0 0.00 0.00 0.00 80 1016.3
20260902081536 57 0 0.0 3.0 0.00 0.00 0.00 80 1016.3
20260902081018 57 0 1.0 3.0 0.00 0.00 0.00 80 1016.3
20260902080518 57 0 0.0 4.0 0.00 0.00 0.00 81 1016.3
20260902075519 56 96 1.0 3.0 0.00 0.00 0.00 79 1016.3
20260902075023 57 103 0.0 1.0 0.00 0.00 0.00 80 1016.2
20260902074020 57 0 0.0 4.0 0.00 0.00 0.00 80 1016.3
20260902073520 57 95 2.0 4.0 0.00 0.00 0.00 80 1016.3
20260902072518 58 0 0.0 3.0 0.00 0.00 0.00 78 1016.3
20260902072018 58 0 0.0 3.0 0.00 0.00 0.00 79 1016.2
20260902071542 57 0 0.0 3.0 0.00 0.00 0.00 80 1016.2
20260902071016 57 0 0.0 4.0 0.00 0.00 0.00 80 1016.2
20260902070521 57 103 1.0 4.0 0.00 0.00 0.00 79 1016.2
20260902070037 57 96 1.0 4.0 0.00 0.00 0.00 79 1016.2
20260902065018 58 0 0.0 4.0 0.00 0.00 0.00 80 1016.2
20260902064020 57 104 1.0 6.0 0.00 0.00 0.00 80 1016.3
20260902063521 57 110 2.0 6.0 0.00 0.00 0.00 80 1016.4
20260902063033 57 95 2.0 4.0 0.00 0.00 0.00 79 1016.4
20260902062520 58 102 1.0 3.0 0.00 0.00 0.00 79 1016.4
20260902062021 58 96 1.0 3.0 0.00 0.00 0.00 78 1016.4
20260902061020 59 0 0.0 0.0 0.00 0.00 0.00 77 1016.4
20260902060519 59 0 0.0 1.0 0.00 0.00 0.00 77 1016.3
20260902055517 60 0 1.0 7.0 0.00 0.00 0.00 77 1016.4
20260902055019 60 200 3.0 7.0 0.00 0.00 0.00 76 1016.4
20260902054018 61 192 4.0 7.0 0.00 0.00 0.00 76 1016.4
20260902053520 61 192 4.0 7.0 0.00 0.00 0.00 76 1016.4
20260902053034 61 204 4.0 6.0 0.00 0.00 0.00 75 1016.4
20260902051019 62 227 5.0 11.0 0.00 0.00 0.00 73 1016.4
20260902050518 62 219 6.0 11.0 0.00 0.00 0.00 73 1016.5
20260902045517 62 245 8.0 13.0 0.00 0.00 0.00 72 1016.3
20260902045016 62 236 7.0 13.0 0.00 0.00 0.00 71 1016.3
20260902044537 62 263 10.0 14.0 0.00 0.00 0.00 71 1016.3
20260902044018 63 257 10.0 14.0 0.00 0.00 0.00 70 1016.0
20260902043517 63 251 8.0 14.0 0.00 0.00 0.00 69 1016.0